STARLINK-11498 [DTC] (62276 NORAD) Tracking and Keplerian Element Data

This shows tracking and keplerian element data for the satellite.

Feedback or suggestion? Click here.




ElementValue
Catalog62276
NameSTARLINK-11498 [DTC]
Epoch Orbit1035
Epoch Day35.09314102
Epoch Year2025
RAAN299.1958
Inclination42.9998
Eccentricity9.31E-05
Argument of Perigee295.0592
Mean Anonmoly65.0179
Mean Motion15.70821459
Decay Rate9.88E-06
L11 62276U 24237K 25035.09314102 .00000988 00000+0 11193-4 0 9999
L22 62276 42.9998 299.1958 0000931 295.0592 65.0179 15.70821459 10353



Live tracking and technical data element details for STARLINK-11498 [DTC] (NORAD 62276). STARLINK-11498 [DTC] can be tracked NOW for your location showing map with azimuth and elevation plus other details from your city location.







IsCatalogInMostPopularTable: catalog: 62276, numindb: 13
Update: records affected: 1



GetName: 62276 STARLINK-11498 [DTC]

Hit Count: updated at: Sun, 18 May 2025 23:42:34 GMT